Location: Central Falls
(41.8900°N, 71.3929°W)
Time: 21:59:05
(UTC+00:00)

deb Explorer IX - All Passes

Search period start: 06 December 2023 00:00
Search period end: 16 December 2023 00:00
Orbit: 524 x 934 km, 38.8° (Epoch: 05 December)

Date Brightness Start Highest point End Pass type
(mag) Time Alt. Az. Time Alt. Az. Time Alt. Az.
06 Dec - 01:30:17 10° SW 01:33:50 29° SSE 01:37:36 10° E night (unlit)
06 Dec - 03:13:59 10° WSW 03:18:07 57° S 03:22:44 10° E night (unlit)
06 Dec - 04:58:18 10° W 05:02:40 49° SSW 05:07:34 10° ESE night (unlit)
06 Dec - 06:43:15 10° WSW 06:47:04 23° SSW 06:51:14 10° SSE night (unlit)
07 Dec - 00:39:05 10° SSW 00:42:11 22° SSE 00:45:24 10° ESE visible
07 Dec - 02:22:22 10° WSW 02:26:20 51° S 02:30:41 10° E night (unlit)
07 Dec - 04:06:36 10° W 04:10:50 54° S 04:15:34 10° ESE night (unlit)
07 Dec - 05:51:17 10° W 05:55:16 28° SSW 05:59:39 10° SE night (unlit)
07 Dec - 23:48:06 10° S 23:50:32 16° SSE 23:53:00 10° ESE visible
08 Dec - 01:30:45 10° WSW 01:34:34 43° SSE 01:38:38 10° E night (unlit)
08 Dec - 03:14:53 10° W 03:18:59 57° S 03:23:30 10° ESE night (unlit)
08 Dec - 04:59:23 10° W 05:03:25 34° SSW 05:07:53 10° SE night (unlit)
08 Dec - 06:45:45 10° SW 06:47:36 12° SSW 06:49:32 10° S night (unlit)
08 Dec - 22:57:54 10° SSE 22:58:51 11° SSE 22:59:48 10° SE visible
09 Dec - 00:39:09 10° SW 00:42:47 35° SSE 00:46:33 10° E visible
09 Dec - 02:23:07 10° WSW 02:27:06 57° S 02:31:26 10° E night (unlit)
09 Dec - 04:07:32 10° W 04:11:33 40° SSW 04:15:59 10° SE night (unlit)
09 Dec - 05:52:58 10° WSW 05:55:47 16° SSW 05:58:46 10° S night (unlit)
09 Dec - 23:47:36 10° SW 23:50:59 27° SSE 23:54:24 10° E visible
10 Dec - 01:31:19 10° WSW 01:35:13 54° S 01:39:21 10° E night (unlit)
10 Dec - 03:15:41 10° W 03:19:39 46° SSW 03:23:58 10° ESE night (unlit)
10 Dec - 05:00:38 10° WSW 05:03:55 20° SSW 05:07:26 10° SSE night (unlit)
10 Dec - 22:56:09 10° SSW 22:59:10 20° SSE 23:02:10 10° ESE visible
11 Dec - 00:39:29 10° WSW 00:43:19 48° S 00:47:15 10° E visible
11 Dec - 02:23:47 10° W 02:27:42 51° S 02:31:55 10° ESE night (unlit)
11 Dec - 04:08:29 10° W 04:12:01 26° SSW 04:15:48 10° SSE night (unlit)
11 Dec - 22:04:56 10° S 22:07:19 15° SSE 22:09:41 10° ESE visible
11 Dec - 23:47:37 10° WSW 23:51:23 41° SSE 23:55:10 10° E visible
12 Dec - 01:31:51 10° W 01:35:45 55° S 01:39:49 10° ESE night (unlit)
12 Dec - 03:16:25 10° W 03:20:04 31° SSW 03:23:59 10° SE night (unlit)
12 Dec - 05:03:26 10° SW 05:04:07 10° SSW 05:04:50 10° SSW night (unlit)
12 Dec - 21:14:25 10° SSE 21:15:27 11° SSE 21:16:28 10° SE daylight
12 Dec - 22:55:45 10° SW 22:59:26 33° SSE 23:03:02 10° E visible
13 Dec - 00:39:50 10° WSW 00:43:44 55° S 00:47:42 10° E visible
13 Dec - 02:24:21 10° W 02:28:05 38° SSW 02:32:02 10° SE night (unlit)
13 Dec - 04:09:55 10° WSW 04:12:12 14° SSW 04:14:34 10° S night (unlit)
13 Dec - 22:03:55 10° SW 22:07:27 26° SSE 22:10:51 10° E visible
13 Dec - 23:47:46 10° WSW 23:51:42 52° S 23:55:35 10° E visible
14 Dec - 01:32:15 10° W 01:36:04 45° S 01:39:59 10° ESE night (unlit)
14 Dec - 03:17:19 10° WSW 03:20:13 19° SSW 03:23:15 10° SSE night (unlit)
14 Dec - 21:12:11 10° SSW 21:15:25 21° SSE 21:18:31 10° ESE daylight
14 Dec - 22:55:39 10° WSW 22:59:37 47° S 23:03:27 10° E visible
15 Dec - 00:40:06 10° W 00:44:00 51° S 00:47:54 10° ESE visible
15 Dec - 02:24:56 10° WSW 02:28:12 24° SSW 02:31:36 10° SSE night (unlit)
15 Dec - 20:20:38 10° S 20:23:22 16° SSE 20:25:58 10° ESE daylight
15 Dec - 22:03:29 10° SW 22:07:31 41° SSE 22:11:18 10° E visible
15 Dec - 23:47:53 10° W 23:51:52 55° S 23:55:45 10° ESE visible
